Find Starlink 31540

NORAD ID: 59542 Int'l Des: 2024-074 Owner: SPXS Country: US Constellation: starlink operational
LEOCIRCULAR

現在のビュー

3D地球を読み込み中...

About Starlink 31540

Starlink 31540 (NORAD 59542) is a starlink constellation satellite (v2 mini) launched Apr 18, 2024 by SPXS of US. It operates in LEO, CIRCULAR orbit with a mass of 730.00 kg.

次回通過

Passes for default location (London). Set your location on the main map for personalized predictions.

高度履歴

Loading altitude history...

軌道要素

1 59542U 24074J 26255.02069566 .00008598 00000-0 32195-3 0 9999
2 59542 43.0018 11.0152 0001242 278.4940 81.5771 15.27545596134518
Epoch: Sep 12, 2026 • Age: 20 hours

現在のステータス

高度 484.0 km
遠地点 / 近地点 N/A
速度 7.62 km/s
衛星直下点 -6.32°S, 100.96°W
打ち上げ日 Apr 18, 2024
運用期間 2.3 years
タイプ internet

技術仕様

分類 Payload
質量 730.00 kg
乾燥質量 700.00 kg
総質量 730.00 kg
長さ 0.30 m
直径 4.10 m
スパン 29.00 m
形状 Box + pan
製造者 SPXS
バスタイプ Starlink V2M
フェーズステータス In Orbit
所有者/国 SPXS/US

Most Searched